Location: Prague
(50.0830°N, 14.4670°E)
Time: 05:45:26
(UTC+01:00)

ITUPSAT 1 - Pass Details

Date: 03 December 2021
Orbit: 700 x 713 km, 98.6° (Epoch: 28 January)

Event Time Altitude Azimuth Distance (km) Brightness Sun altitude
Rises 05:57:46 0° 140° (SE) 3,091 ? -15.9°
Reaches altitude 10° 06:00:08 10° 133° (SE) 2,178 ? -15.5°
Maximum altitude 06:04:32 38° 65° (ENE) 1,074 ? -14.8°
Drops below altitude 10° 06:08:59 10° 358° (N) 2,200 ? -14.2°
Sets 06:11:22 0° 351° (N) 3,125 ? -13.8°
